Regional Weather Roundup
Issued by NWS

Home | Current Version | Previous Version | Text Only | Print | Product List | Glossary On
Versions: 1 2 3 4 5 6 7 8 9 10 11 12 13 14 15 16 17 18 19 20 21 22 23 24 25 26 27 28 29 30 31 32 33 34 35 36 37 38 39 40 41 42 43 44 45 46 47 48 49 50
000
ASHW40 PHFO 261543
RWRHI

WEATHER ROUNDUP FOR HAWAII
NATIONAL WEATHER SERVICE HONOLULU HI
500 AM HST FRI MAY 26 2017

THIS IS AN AUTOMATED REPORT THAT HAS NOT BEEN QUALITY CONTROLLED.

NOTE..."FAIR" INDICATES FEW OR NO CLOUDS BELOW 12,000 FEET WITH NO
SIGNIFICANT WEATHER AND/OR OBSTRUCTIONS TO VISIBILITY.

* - THESE SITES REPORT LIMITED FIELDS

HIZ001>004-261600-
KAUAI-NIIHAU-

CITY           SKY/WX    TMP DP  RH WIND       PRES   REMARKS
LIHUE APT      CLOUDY    72  65  78 W6        30.01S
PORT ALLEN*      N/A     70 N/A N/A N6          N/A
POIPU*           N/A     70 N/A N/A NE3         N/A
PRINCEVILLE*     N/A     68 N/A N/A SW3         N/A
KOKOLE POINT*  NOT AVBL
MOLOAA DAIRY*    N/A     68  64  88 CALM        N/A
WAIMEA HTS*      N/A     72  59  64 VRB3        N/A
PUU OPAE*      NOT AVBL
PUU LUA*       NOT AVBL
MAKAHA RIDGE*    N/A     66  55  68 CALM        N/A
$$

HIZ005>011-261600-
OAHU-

CITY           SKY/WX    TMP DP  RH WIND       PRES   REMARKS
HONOLULU       PTCLDY    69  63  81 CALM      29.98S
KALAELOA       PTCLDY    69  61  75 NE3       30.00S
KANEOHE MCB    PTCLDY    75  66  73 E3        29.96S
WHEELER FIELD  FAIR      66  62  88 NW5       29.98F
BELLOWS*         N/A    N/A N/A N/A NE9         N/A
KAHUKU*          N/A    N/A N/A N/A E1          N/A
WHEELER*         N/A    N/A N/A N/A N5          N/A
WAIANAE HARBOR   N/A    N/A N/A N/A NE2         N/A
DILLINGHAM*      N/A     88  81  79 W1          N/A  HX 105
KAHUKU TRN*      N/A     82  79  89 W3          N/A  HX  93
KAWAILOA*        N/A     66  63  88 E6          N/A
KII*             N/A     75  66  73 E8          N/A
MAKUA RANGE*     N/A     66  59  77 W3          N/A
OAHU FOREST NW   N/A     66  59  77 E8          N/A
SCHOFIELD BRK*   N/A     61  59  94 MISG        N/A
SCHOFIELD S*   NOT AVBL
WAIANAE VLY*     N/A     63  59  88 NW3         N/A
KUAOKALA*        N/A     70  63  78 NE9G20      N/A
HONOULIUULI*   NOT AVBL
MOKUOLOE IS*   NOT AVBL
PALEHUA*         N/A    N/A N/A N/A NE12        N/A
WAIAWA PHB*    NOT AVBL
$$

HIZ012>013-261600-
MOLOKAI-

CITY           SKY/WX    TMP DP  RH WIND       PRES   REMARKS
MOLOKAI AIRPT  CLEAR     68  64  87 E5        30.00S
KALAUPAPA      NOT AVBL
MAKAPULAPAI*     N/A     66  63  88 SE6         N/A
MOLOKAI 1*       N/A     61 N/A N/A NE3         N/A
PUU ALII*        N/A     53  52  97 NE1         N/A
$$

HIZ016-261600-
KAHOOLAWE-

CITY           SKY/WX    TMP DP  RH WIND       PRES   REMARKS
KAHOOLAWE*     NOT AVBL
HAKIOAWA*        N/A     66  64  92 MISG        N/A
HONOKANAIA*      N/A     70  63  78 N7        29.92F
KANELOA*         N/A     70  64  83 NE6       30.04F
KEALIALALO*    NOT AVBL
LUA MAKIKA*    NOT AVBL
$$

HIZ014>015-261600-
LANAI-

CITY           SKY/WX    TMP DP  RH WIND       PRES   REMARKS
LANAI CITY     FAIR      65  60  84 NE8       30.03F
LANAI 1*       NOT AVBL
$$

HIZ017>028-261600-
MAUI-

CITY           SKY/WX    TMP DP  RH WIND       PRES   REMARKS
KAHULUI        CLEAR     64  60  87 SE6       29.99S
KAPALUA-W MAUI NOT AVBL
HANA AIRPORT   MOCLDY    66  66 100 S2        30.01F
HANA*            N/A     70 N/A N/A SW3         N/A
HALEAKALA SUMM   N/A     39  19  45 N25         N/A  WCI  28
MAALAEA BAY*     N/A     66 N/A N/A NE7         N/A
HALEAKALA*     NOT AVBL
KAUPO GAP*     NOT AVBL
KULA 1*          N/A    N/A N/A N/A NE3         N/A
$$

HIZ023>026-261600-
BIG ISLAND OF HAWAII COAST AND LOWER SLOPES-

CITY           SKY/WX    TMP DP  RH WIND       PRES   REMARKS
KAILUA KONA    CLEAR     73  59  61 NE3       29.95S
HILO           PTCLDY    65  58  78 SW8       29.98S
HONOKAA*         N/A     61 N/A N/A VRB1        N/A
KAWAIHAE MWT*    N/A     73 N/A N/A NW1         N/A
KAWAIHAE*        N/A     73 N/A N/A E6        29.96S
SOUTH POINT*     N/A     66 N/A N/A NW8         N/A
UPOLU AIRPORT* NOT AVBL
KAMUELA*       NOT AVBL
HAKALAU*         N/A     36  34  93 SW2         N/A
KALOKO-HONOKO* NOT AVBL
PALI 2*          N/A     61  50  67 S9G15       N/A
KEALAKOMO*       N/A     73  54  49 NW13G24     N/A
KAUPULEHU*       N/A     64  55  72 S6          N/A
KAPAPALA*        N/A     58  57  97 N3          N/A
LOWER KAHUKU*    N/A     55  54  94 N2          N/A
PUHE CS*         N/A     72  54  53 NE3         N/A
PUHO CS*         N/A     71  62  74 E2          N/A
PTA KEAMUKU*     N/A     52  45  76 CALM        N/A
WAIKOLOA*        N/A     59  48  67 E5G12       N/A
$$

HIZ027>028-261600-
BIG ISLAND OF HAWAII INTERIOR AND SUMMMITS-

CITY           SKY/WX    TMP DP  RH WIND       PRES   REMARKS
BRADSHAW FIELD CLOUDY    43  32  66 CALM      30.25F
MK VISITOR CEN   N/A     43   3  19 N3          N/A
MAUNA KEA*       N/A     30  -4  22 SW25        N/A  WCI  16
MAUNA LOA*       N/A     37   0  20 MISG        N/A
MAUNA LOA 1*   NOT AVBL
PTA KIPUKA*      N/A     70  66  88 E3          N/A
PTA RANGE 17*    N/A     68  55  64 CALM        N/A
PTA WEST*        N/A     48  41  76 SE12        N/A
NENE CABIN*      N/A     46  46 100 N3G9        N/A
AHUMOA*          N/A    N/A N/A N/A E6          N/A
PTA PORTABLE*  NOT AVBL
PUU MALI*        N/A    N/A N/A N/A SW3G9       N/A
$$

HIC003-261600-
NORTHWEST ISLANDS-

CITY           SKY/WX    TMP DP  RH WIND       PRES   REMARKS
MIDWAY ISLAND  CLOUDY    70  63  78 E18       30.27F
MIDWAY NOS*      N/A     70 N/A N/A MISG      30.25F
FRENCH FRIGATE NOT AVBL
$$

PHZ110>124-180-261600-
BUOY REPORTS

STATION/POSITION TIME  TEMP    WIND        PRES    WAVE   SWELL
                       AIR SEA DIR/SP/G            HT/PER HT/DIR
                 (UTC) (F)     (DEG/KT/KT) (MB)    (FT/S) (FT/D)
BUOY 51001       1520   72 76   30/ 17/ 21 1018.0
BUOY 51101       1450   72 76   30/ 19/ 21 1018.1F   7/ 8   5/ 50
BUOY 51100       NOT AVBL
BUOY 51002       1520   77 78   70/ 14/ 17 1013.6
BUOY 51003       1450   77 79   90/ 10/ 14 1014.3F   6/ 8   5/ 30
BUOY 51004       1450      78   60/ 10/ 12 1013.5R   6/ 8   5/ 60
BARBERS PT BUOY  NOT AVBL
WAIMEA BAY BUOY  1502      78                N/A     5/ 8   2/320
KAILUA BAY BUOY  1504      79                N/A     5/ 8   2/ 90
LANAI BUOY       NOT AVBL
BARBERS PT 2     NOT AVBL
PAUWELA MAUI     1509      78                N/A     5/ 7   2/330
HILO             NOT AVBL
KANEOHE BAY BUOY 1525      79                N/A     5/ 8   2/ 10
HANALEI KAUAI    1452      79                N/A     5/ 8   2/350
KAHULUI HARBOR   1512   70 79  170/  1/  2 1015.4
HONOLULU HARBOR  1512   73 79   CALM  /  2 1016.0
KILO NALU        NOT AVBL
HILO HARBOR      1512   67 78  190/  5/  6 1014.8
MOKUOLOE         1436   75 80   70/  5/  6 1015.3F
NAWILIWILI       1512   71 82  250/  3/  4 1015.7
WHOTS BUOY       NOT AVBL
BUOY 51028       NOT AVBL
$$

......................KEY........................................
  SKY/WX - SKY CONDITIONS/PRESENT WEATHER
  TMP    - TEMPERATURE IN FAHRENHEIT
  DWPT   - DEWPOINT IN FAHRENHEIT
  RH     - RELATIVE HUMIDITY IN PERCENT
  WIND   - DIRECTION AND SPEED /MPH FOR ISLANDS...KTS FOR BUOYS/
  PRES   - MEAN SEA LEVEL PRESSURE IN INCHES OF HG
  VSB    - VISIBILITY IN MILES
  HX     - HEAT INDEX
  WCI    - WIND CHILL INDEX
  VRB    - VARIABLE WIND DIRECTION
  N/A    - NOT AVAILABLE




USA.gov is the U.S. government's official web portal to all federal, state and local government web resources and services.